Year,Month,Day,Hour,Minute,Value (Times are PST for temperature in C)
2015,04,20,00,00,10.40
2015,04,20,00,01,10.40
2015,04,20,00,02,10.40
2015,04,20,00,03,10.40
2015,04,20,00,04,10.40
2015,04,20,00,05,10.30
2015,04,20,00,06,10.30
2015,04,20,00,07,10.30
2015,04,20,00,08,10.30
2015,04,20,00,09,10.30
2015,04,20,00,10,10.20
2015,04,20,00,11,10.20
2015,04,20,00,12,10.20
2015,04,20,00,13,10.20
2015,04,20,00,14,10.20
2015,04,20,00,15,10.20
2015,04,20,00,16,10.20
2015,04,20,00,17,10.20
2015,04,20,00,18,10.30
2015,04,20,00,19,10.30
2015,04,20,00,20,10.30
2015,04,20,00,21,10.30
2015,04,20,00,22,10.30
2015,04,20,00,23,10.30
2015,04,20,00,24,10.30
2015,04,20,00,25,10.30
2015,04,20,00,26,10.20
2015,04,20,00,27,10.20
2015,04,20,00,28,10.20
2015,04,20,00,29,10.20
2015,04,20,00,30,10.20
2015,04,20,00,31,10.20
2015,04,20,00,32,10.20
2015,04,20,00,33,10.20
2015,04,20,00,34,10.10
2015,04,20,00,35,10.10
2015,04,20,00,36,10.10
2015,04,20,00,37,10.00
2015,04,20,00,38,10.00
2015,04,20,00,39,10.00
2015,04,20,00,40,9.90
2015,04,20,00,41,9.90
2015,04,20,00,42,10.00
2015,04,20,00,43,9.90
2015,04,20,00,44,9.90
2015,04,20,00,45,9.90
2015,04,20,00,46,9.90
2015,04,20,00,47,9.90
2015,04,20,00,48,9.90
2015,04,20,00,49,9.90
2015,04,20,00,50,9.80
2015,04,20,00,51,9.80
2015,04,20,00,52,9.80
2015,04,20,00,53,9.80
2015,04,20,00,54,9.90
2015,04,20,00,55,9.90
2015,04,20,00,56,9.80
2015,04,20,00,57,9.80
2015,04,20,00,58,9.90
2015,04,20,00,59,9.80
2015,04,20,01,00,9.80
2015,04,20,01,01,9.80
2015,04,20,01,02,9.80
2015,04,20,01,03,9.70
2015,04,20,01,04,9.70
2015,04,20,01,05,9.60
2015,04,20,01,06,9.60
2015,04,20,01,07,9.50
2015,04,20,01,08,9.50
2015,04,20,01,09,9.50
2015,04,20,01,10,9.50
2015,04,20,01,11,9.60
2015,04,20,01,12,9.60
2015,04,20,01,13,9.60
2015,04,20,01,14,9.60
2015,04,20,01,15,9.70
2015,04,20,01,16,9.70
2015,04,20,01,17,9.70
2015,04,20,01,18,9.60
2015,04,20,01,19,9.60
2015,04,20,01,20,9.60
2015,04,20,01,21,9.70
2015,04,20,01,22,9.70
2015,04,20,01,23,9.70
2015,04,20,01,24,9.70
2015,04,20,01,25,9.70
2015,04,20,01,26,9.70
2015,04,20,01,27,9.80
2015,04,20,01,28,9.80
2015,04,20,01,29,9.80
2015,04,20,01,30,9.80
2015,04,20,01,31,9.80
2015,04,20,01,32,9.80
2015,04,20,01,33,9.80
2015,04,20,01,34,9.80
2015,04,20,01,35,9.80
2015,04,20,01,36,9.80
2015,04,20,01,37,9.80
2015,04,20,01,38,9.80
2015,04,20,01,39,9.80
2015,04,20,01,40,9.80
2015,04,20,01,41,9.70
2015,04,20,01,42,9.70
2015,04,20,01,43,9.70
2015,04,20,01,44,9.70
2015,04,20,01,45,9.60
2015,04,20,01,46,9.60
2015,04,20,01,47,9.60
2015,04,20,01,48,9.60
2015,04,20,01,49,9.60
2015,04,20,01,50,9.70
2015,04,20,01,51,9.70
2015,04,20,01,52,9.70
2015,04,20,01,53,9.60
2015,04,20,01,54,9.60
2015,04,20,01,55,9.60
2015,04,20,01,56,9.60
2015,04,20,01,57,9.60
2015,04,20,01,58,9.60
2015,04,20,01,59,9.60
2015,04,20,02,00,9.60
2015,04,20,02,01,9.60
2015,04,20,02,02,9.60
2015,04,20,02,03,9.60
2015,04,20,02,04,9.60
2015,04,20,02,05,9.60
2015,04,20,02,06,9.60
2015,04,20,02,07,9.60
2015,04,20,02,08,9.60
2015,04,20,02,09,9.60
2015,04,20,02,10,9.70
2015,04,20,02,11,9.70
2015,04,20,02,12,9.70
2015,04,20,02,13,9.70
2015,04,20,02,14,9.80
2015,04,20,02,15,9.80
2015,04,20,02,16,9.90
2015,04,20,02,17,9.90
2015,04,20,02,18,9.90
2015,04,20,02,19,9.90
2015,04,20,02,20,9.90
2015,04,20,02,21,9.90
2015,04,20,02,22,9.90
2015,04,20,02,23,9.90
2015,04,20,02,24,9.90
2015,04,20,02,25,9.90
2015,04,20,02,26,9.90
2015,04,20,02,27,9.90
2015,04,20,02,28,9.90
2015,04,20,02,29,9.90
2015,04,20,02,30,9.80
2015,04,20,02,31,9.80
2015,04,20,02,32,9.80
2015,04,20,02,33,9.80
2015,04,20,02,34,9.80
2015,04,20,02,35,9.80
2015,04,20,02,36,9.80
2015,04,20,02,37,9.70
2015,04,20,02,38,9.70
2015,04,20,02,39,9.70
2015,04,20,02,40,9.60
2015,04,20,02,41,9.60
2015,04,20,02,42,9.60
2015,04,20,02,43,9.60
2015,04,20,02,44,9.60
2015,04,20,02,45,9.50
2015,04,20,02,46,9.50
2015,04,20,02,47,9.50
2015,04,20,02,48,9.50
2015,04,20,02,49,9.50
2015,04,20,02,50,9.50
2015,04,20,02,51,9.50
2015,04,20,02,52,9.50
2015,04,20,02,53,9.40
2015,04,20,02,54,9.40
2015,04,20,02,55,9.40
2015,04,20,02,56,9.40
2015,04,20,02,57,9.40
2015,04,20,02,58,9.40
2015,04,20,02,59,9.40
2015,04,20,03,00,9.40
2015,04,20,03,01,9.40
2015,04,20,03,02,9.40
2015,04,20,03,03,9.30
2015,04,20,03,04,9.30
2015,04,20,03,05,9.30
2015,04,20,03,06,9.20
2015,04,20,03,07,9.20
2015,04,20,03,08,9.20
2015,04,20,03,09,9.20
2015,04,20,03,10,9.20
2015,04,20,03,11,9.20
2015,04,20,03,12,9.20
2015,04,20,03,13,9.10
2015,04,20,03,14,9.10
2015,04,20,03,15,9.00
2015,04,20,03,16,9.00
2015,04,20,03,17,8.90
2015,04,20,03,18,8.90
2015,04,20,03,19,8.80
2015,04,20,03,20,8.80
2015,04,20,03,21,8.70
2015,04,20,03,22,8.70
2015,04,20,03,23,8.70
2015,04,20,03,24,8.70
2015,04,20,03,25,8.70
2015,04,20,03,26,8.60
2015,04,20,03,27,8.60
2015,04,20,03,28,8.60
2015,04,20,03,29,8.60
2015,04,20,03,30,8.60
2015,04,20,03,31,8.60
2015,04,20,03,32,8.60
2015,04,20,03,33,8.60
2015,04,20,03,34,8.60
2015,04,20,03,35,8.60
2015,04,20,03,36,8.60
2015,04,20,03,37,8.60
2015,04,20,03,38,8.60
2015,04,20,03,39,8.70
2015,04,20,03,40,8.70
2015,04,20,03,41,8.70
2015,04,20,03,42,8.70
2015,04,20,03,43,8.70
2015,04,20,03,44,8.70
2015,04,20,03,45,8.80
2015,04,20,03,46,8.80
2015,04,20,03,47,8.80
2015,04,20,03,48,8.80
2015,04,20,03,49,8.80
2015,04,20,03,50,8.70
2015,04,20,03,51,8.70
2015,04,20,03,52,8.70
2015,04,20,03,53,8.70
2015,04,20,03,54,8.60
2015,04,20,03,55,8.60
2015,04,20,03,56,8.60
2015,04,20,03,57,8.60
2015,04,20,03,58,8.60
2015,04,20,03,59,8.70
2015,04,20,04,00,8.70
2015,04,20,04,01,8.70
2015,04,20,04,02,8.70
2015,04,20,04,03,8.70
2015,04,20,04,04,8.70
2015,04,20,04,05,8.70
2015,04,20,04,06,8.70
2015,04,20,04,07,8.70
2015,04,20,04,08,8.70
2015,04,20,04,09,8.70
2015,04,20,04,10,8.70
2015,04,20,04,11,8.70
2015,04,20,04,12,8.70
2015,04,20,04,13,8.60
2015,04,20,04,14,8.60
2015,04,20,04,15,8.60
2015,04,20,04,16,8.60
2015,04,20,04,17,8.60
2015,04,20,04,18,8.60
2015,04,20,04,19,8.50
2015,04,20,04,20,8.50
2015,04,20,04,21,8.50
2015,04,20,04,22,8.40
2015,04,20,04,23,8.40
2015,04,20,04,24,8.40
2015,04,20,04,25,8.30
2015,04,20,04,26,8.30
2015,04,20,04,27,8.30
2015,04,20,04,28,8.30
2015,04,20,04,29,8.30
2015,04,20,04,30,8.30
2015,04,20,04,31,8.40
2015,04,20,04,32,8.40
2015,04,20,04,33,8.40
2015,04,20,04,34,8.40
2015,04,20,04,35,8.40
2015,04,20,04,36,8.40
2015,04,20,04,37,8.30
2015,04,20,04,38,8.30
2015,04,20,04,39,8.40
2015,04,20,04,40,8.30
2015,04,20,04,41,8.30
2015,04,20,04,42,8.30
2015,04,20,04,43,8.30
2015,04,20,04,44,8.30
2015,04,20,04,45,8.20
2015,04,20,04,46,8.20
2015,04,20,04,47,8.20
2015,04,20,04,48,8.20
2015,04,20,04,49,8.10
2015,04,20,04,50,8.10
2015,04,20,04,51,8.10
2015,04,20,04,52,8.00
2015,04,20,04,53,8.00
2015,04,20,04,54,8.00
2015,04,20,04,55,8.00
2015,04,20,04,56,8.00
2015,04,20,04,57,7.90
2015,04,20,04,58,7.90
2015,04,20,04,59,7.80
2015,04,20,05,00,7.80
2015,04,20,05,01,7.80
2015,04,20,05,02,7.80
2015,04,20,05,03,7.80
2015,04,20,05,04,7.80
2015,04,20,05,05,7.80
2015,04,20,05,06,7.80
2015,04,20,05,07,7.80
2015,04,20,05,08,7.80
2015,04,20,05,09,7.80
2015,04,20,05,10,7.80
2015,04,20,05,11,7.80
2015,04,20,05,12,7.80
2015,04,20,05,13,7.80
2015,04,20,05,14,7.70
2015,04,20,05,15,7.70
2015,04,20,05,16,7.70
2015,04,20,05,17,7.70
2015,04,20,05,18,7.70
2015,04,20,05,19,7.70
2015,04,20,05,20,7.60
2015,04,20,05,21,7.60
2015,04,20,05,22,7.60
2015,04,20,05,23,7.60
2015,04,20,05,24,7.70
2015,04,20,05,25,7.70
2015,04,20,05,26,7.60
2015,04,20,05,27,7.60
2015,04,20,05,28,7.60
2015,04,20,05,29,7.50
2015,04,20,05,30,7.50
2015,04,20,05,31,7.40
2015,04,20,05,32,7.40
2015,04,20,05,33,7.30
2015,04,20,05,34,7.30
2015,04,20,05,35,7.30
2015,04,20,05,36,7.30
2015,04,20,05,37,7.30
2015,04,20,05,38,7.40
2015,04,20,05,39,7.40
2015,04,20,05,40,7.40
2015,04,20,05,41,7.40
2015,04,20,05,42,7.30
2015,04,20,05,43,7.30
2015,04,20,05,44,7.30
2015,04,20,05,45,7.30
2015,04,20,05,46,7.20
2015,04,20,05,47,7.20
2015,04,20,05,48,7.20
2015,04,20,05,49,7.10
2015,04,20,05,50,7.10
2015,04,20,05,51,7.20
2015,04,20,05,52,7.20
2015,04,20,05,53,7.20
2015,04,20,05,54,7.20
2015,04,20,05,55,7.30
2015,04,20,05,56,7.30
2015,04,20,05,57,7.40
2015,04,20,05,58,7.50
2015,04,20,05,59,7.60
2015,04,20,06,00,7.70
2015,04,20,06,01,7.80
2015,04,20,06,02,7.80
2015,04,20,06,03,7.80
2015,04,20,06,04,7.70
2015,04,20,06,05,7.70
2015,04,20,06,06,7.70
2015,04,20,06,07,7.70
2015,04,20,06,08,7.70
2015,04,20,06,09,7.70
2015,04,20,06,10,7.70
2015,04,20,06,11,7.70
2015,04,20,06,12,7.70
2015,04,20,06,13,7.70
2015,04,20,06,14,7.70
2015,04,20,06,15,7.70
2015,04,20,06,16,7.60
2015,04,20,06,17,7.60
2015,04,20,06,18,7.60
2015,04,20,06,19,7.60
2015,04,20,06,20,7.60
2015,04,20,06,21,7.50
2015,04,20,06,22,7.50
2015,04,20,06,23,7.50
2015,04,20,06,24,7.40
2015,04,20,06,25,7.40
2015,04,20,06,26,7.40
2015,04,20,06,27,7.40
2015,04,20,06,28,7.40
2015,04,20,06,29,7.40
2015,04,20,06,30,7.40
2015,04,20,06,31,7.40
2015,04,20,06,32,7.30
2015,04,20,06,33,7.30
2015,04,20,06,34,7.30
2015,04,20,06,35,7.30
2015,04,20,06,36,7.30
2015,04,20,06,37,7.30
2015,04,20,06,38,7.30
2015,04,20,06,39,7.30
2015,04,20,06,40,7.30
2015,04,20,06,41,7.30
2015,04,20,06,42,7.30
2015,04,20,06,43,7.40
2015,04,20,06,44,7.40
2015,04,20,06,45,7.40
2015,04,20,06,46,7.40
2015,04,20,06,47,7.40
2015,04,20,06,48,7.40
2015,04,20,06,49,7.40
2015,04,20,06,50,7.40
2015,04,20,06,51,7.40
2015,04,20,06,52,7.50
2015,04,20,06,53,7.50
2015,04,20,06,54,7.50
2015,04,20,06,55,7.50
2015,04,20,06,56,7.50
2015,04,20,06,57,7.50
2015,04,20,06,58,7.50
2015,04,20,06,59,7.40
2015,04,20,07,00,7.40
2015,04,20,07,01,7.40
2015,04,20,07,02,7.40
2015,04,20,07,03,7.40
2015,04,20,07,04,7.40
2015,04,20,07,05,7.40
2015,04,20,07,06,7.40
2015,04,20,07,07,7.50
2015,04,20,07,08,7.50
2015,04,20,07,09,7.60
2015,04,20,07,10,7.60
2015,04,20,07,11,7.70
2015,04,20,07,12,7.70
2015,04,20,07,13,7.80
2015,04,20,07,14,7.80
2015,04,20,07,15,7.90
2015,04,20,07,16,7.90
2015,04,20,07,17,8.00
2015,04,20,07,18,8.10
2015,04,20,07,19,8.10
2015,04,20,07,20,8.20
2015,04,20,07,21,8.20
2015,04,20,07,22,8.20
2015,04,20,07,23,8.20
2015,04,20,07,24,8.30
2015,04,20,07,25,8.30
2015,04,20,07,26,8.30
2015,04,20,07,27,8.40
2015,04,20,07,28,8.40
2015,04,20,07,29,8.40
2015,04,20,07,30,8.50
2015,04,20,07,31,8.50
2015,04,20,07,32,8.60
2015,04,20,07,33,8.60
2015,04,20,07,34,8.70
2015,04,20,07,35,8.70
2015,04,20,07,36,8.70
2015,04,20,07,37,8.70
2015,04,20,07,38,8.80
2015,04,20,07,39,8.80
2015,04,20,07,40,8.80
2015,04,20,07,41,8.90
2015,04,20,07,42,8.90
2015,04,20,07,43,8.90
2015,04,20,07,44,9.00
2015,04,20,07,45,9.00
2015,04,20,07,46,9.00
2015,04,20,07,47,9.10
2015,04,20,07,48,9.10
2015,04,20,07,49,9.10
2015,04,20,07,50,9.20
2015,04,20,07,51,9.20
2015,04,20,07,52,9.30
2015,04,20,07,53,9.40
2015,04,20,07,54,9.40
2015,04,20,07,55,9.40
2015,04,20,07,56,9.40
2015,04,20,07,57,9.50
2015,04,20,07,58,9.50
2015,04,20,07,59,9.60
2015,04,20,08,00,9.60
2015,04,20,08,01,9.70
2015,04,20,08,02,9.70
2015,04,20,08,03,9.70
2015,04,20,08,04,9.80
2015,04,20,08,05,9.80
2015,04,20,08,06,9.90
2015,04,20,08,07,9.90
2015,04,20,08,08,10.00
2015,04,20,08,09,10.00
2015,04,20,08,10,10.00
2015,04,20,08,11,10.10
2015,04,20,08,12,10.10
2015,04,20,08,13,10.20
2015,04,20,08,14,10.20
2015,04,20,08,15,10.20
2015,04,20,08,16,10.30
2015,04,20,08,17,10.30
2015,04,20,08,18,10.30
2015,04,20,08,19,10.40
2015,04,20,08,20,10.40
2015,04,20,08,21,10.40
2015,04,20,08,22,10.50
2015,04,20,08,23,10.50
2015,04,20,08,24,10.60
2015,04,20,08,25,10.60
2015,04,20,08,26,10.60
2015,04,20,08,27,10.70
2015,04,20,08,28,10.70
2015,04,20,08,29,10.80
2015,04,20,08,30,10.80
2015,04,20,08,31,10.80
2015,04,20,08,32,10.90
2015,04,20,08,33,10.90
2015,04,20,08,34,10.90
2015,04,20,08,35,11.00
2015,04,20,08,36,11.10
2015,04,20,08,37,11.10
2015,04,20,08,38,11.20
2015,04,20,08,39,11.20
2015,04,20,08,40,11.30
2015,04,20,08,41,11.30
2015,04,20,08,42,11.40
2015,04,20,08,43,11.50
2015,04,20,08,44,11.50
2015,04,20,08,45,11.60
2015,04,20,08,46,11.60
2015,04,20,08,47,11.70
2015,04,20,08,48,11.70
2015,04,20,08,49,11.70
2015,04,20,08,50,11.80
2015,04,20,08,51,11.80
2015,04,20,08,52,11.90
2015,04,20,08,53,12.00
2015,04,20,08,54,12.00
2015,04,20,08,55,12.10
2015,04,20,08,56,12.20
2015,04,20,08,57,12.20
2015,04,20,08,58,12.20
2015,04,20,08,59,12.20
2015,04,20,09,00,12.30
2015,04,20,09,01,12.30
2015,04,20,09,02,12.30
2015,04,20,09,03,12.30
2015,04,20,09,04,12.30
2015,04,20,09,05,12.40
2015,04,20,09,06,12.40
2015,04,20,09,07,12.40
2015,04,20,09,08,12.50
2015,04,20,09,09,12.50
2015,04,20,09,10,12.60
2015,04,20,09,11,12.60
2015,04,20,09,12,12.60
2015,04,20,09,13,12.70
2015,04,20,09,14,12.70
2015,04,20,09,15,12.70
2015,04,20,09,16,12.80
2015,04,20,09,17,12.80
2015,04,20,09,18,12.90
2015,04,20,09,19,13.00
2015,04,20,09,20,13.00
2015,04,20,09,21,13.00
2015,04,20,09,22,13.10
2015,04,20,09,23,13.10
2015,04,20,09,24,13.10
2015,04,20,09,25,13.20
2015,04,20,09,26,13.20
2015,04,20,09,27,13.30
2015,04,20,09,28,13.30
2015,04,20,09,29,13.40
2015,04,20,09,30,13.50
2015,04,20,09,31,13.50
2015,04,20,09,32,13.60
2015,04,20,09,33,13.50
2015,04,20,09,34,13.50
2015,04,20,09,35,13.60
2015,04,20,09,36,13.60
2015,04,20,09,37,13.70
2015,04,20,09,38,13.70
2015,04,20,09,39,13.70
2015,04,20,09,40,13.70
2015,04,20,09,41,13.70
2015,04,20,09,42,13.80
2015,04,20,09,43,13.80
2015,04,20,09,44,13.80
2015,04,20,09,45,13.90
2015,04,20,09,46,13.90
2015,04,20,09,47,14.00
2015,04,20,09,48,14.00
2015,04,20,09,49,14.00
2015,04,20,09,50,14.10
2015,04,20,09,51,14.10
2015,04,20,09,52,14.20
2015,04,20,09,53,14.20
2015,04,20,09,54,14.20
2015,04,20,09,55,14.30
2015,04,20,09,56,14.40
2015,04,20,09,57,14.50
2015,04,20,09,58,14.50
2015,04,20,09,59,14.60
2015,04,20,10,00,14.60
2015,04,20,10,01,14.60
2015,04,20,10,02,14.60
2015,04,20,10,03,14.60
2015,04,20,10,04,14.70
2015,04,20,10,05,14.70
2015,04,20,10,06,14.80
2015,04,20,10,07,14.80
2015,04,20,10,08,14.80
2015,04,20,10,09,14.90
2015,04,20,10,10,15.10
2015,04,20,10,11,15.20
2015,04,20,10,12,15.40
2015,04,20,10,13,15.60
2015,04,20,10,14,15.70
2015,04,20,10,15,15.80
2015,04,20,10,16,15.80
2015,04,20,10,17,15.80
2015,04,20,10,18,15.80
2015,04,20,10,19,15.90
2015,04,20,10,20,15.90
2015,04,20,10,21,15.90
2015,04,20,10,22,16.00
2015,04,20,10,23,16.10
2015,04,20,10,24,16.10
2015,04,20,10,25,16.10
2015,04,20,10,26,16.10
2015,04,20,10,27,16.20
2015,04,20,10,28,16.20
2015,04,20,10,29,16.20
2015,04,20,10,30,16.10
2015,04,20,10,31,16.10
2015,04,20,10,32,16.10
2015,04,20,10,33,16.10
2015,04,20,10,34,16.10
2015,04,20,10,35,16.10
2015,04,20,10,36,16.20
2015,04,20,10,37,16.20
2015,04,20,10,38,16.20
2015,04,20,10,39,16.20
2015,04,20,10,40,16.30
2015,04,20,10,41,16.30
2015,04,20,10,42,16.30
2015,04,20,10,43,16.30
2015,04,20,10,44,16.20
2015,04,20,10,45,16.20
2015,04,20,10,46,16.10
2015,04,20,10,47,16.20
2015,04,20,10,48,16.20
2015,04,20,10,49,16.20
2015,04,20,10,50,16.20
2015,04,20,10,51,16.20
2015,04,20,10,52,16.20
2015,04,20,10,53,16.30
2015,04,20,10,54,16.30
2015,04,20,10,55,16.40
2015,04,20,10,56,16.40
2015,04,20,10,57,16.40
2015,04,20,10,58,16.40
2015,04,20,10,59,16.40
2015,04,20,11,00,16.40
2015,04,20,11,01,16.30
2015,04,20,11,02,16.30
2015,04,20,11,03,16.40
2015,04,20,11,04,16.40
2015,04,20,11,05,16.50
2015,04,20,11,06,16.60
2015,04,20,11,07,16.60
2015,04,20,11,08,16.70
2015,04,20,11,09,16.70
2015,04,20,11,10,16.70
2015,04,20,11,11,16.70
2015,04,20,11,12,16.70
2015,04,20,11,13,16.80
2015,04,20,11,14,16.80
2015,04,20,11,15,16.80
2015,04,20,11,16,16.90
2015,04,20,11,17,16.90
2015,04,20,11,18,17.00
2015,04,20,11,19,17.00
2015,04,20,11,20,17.10
2015,04,20,11,21,17.20
2015,04,20,11,22,17.30
2015,04,20,11,23,17.30
2015,04,20,11,24,17.30
2015,04,20,11,25,17.30
2015,04,20,11,26,17.40
2015,04,20,11,27,17.40
2015,04,20,11,28,17.50
2015,04,20,11,29,17.50
2015,04,20,11,30,17.50
2015,04,20,11,31,17.50
2015,04,20,11,32,17.40
2015,04,20,11,33,17.40
2015,04,20,11,34,17.40
2015,04,20,11,35,17.40
2015,04,20,11,36,17.40
2015,04,20,11,37,17.40
2015,04,20,11,38,17.40
2015,04,20,11,39,17.50
2015,04,20,11,40,17.50
2015,04,20,11,41,17.50
2015,04,20,11,42,17.60
2015,04,20,11,43,17.60
2015,04,20,11,44,17.60
2015,04,20,11,45,17.60
2015,04,20,11,46,17.70
2015,04,20,11,47,17.70
2015,04,20,11,48,17.60
2015,04,20,11,49,17.60
2015,04,20,11,50,17.50
2015,04,20,11,51,17.40
2015,04,20,11,52,17.30
2015,04,20,11,53,17.20
2015,04,20,11,54,17.20
2015,04,20,11,55,17.20
2015,04,20,11,56,17.10
2015,04,20,11,57,17.10
2015,04,20,11,58,17.10
2015,04,20,11,59,17.10
2015,04,20,12,00,17.10
2015,04,20,12,01,17.10
2015,04,20,12,02,17.20
2015,04,20,12,03,17.30
2015,04,20,12,04,17.30
2015,04,20,12,05,17.40
2015,04,20,12,06,17.50
2015,04,20,12,07,17.60
2015,04,20,12,08,17.70
2015,04,20,12,09,17.80
2015,04,20,12,10,17.80
2015,04,20,12,11,17.80
2015,04,20,12,12,17.80
2015,04,20,12,13,17.90
2015,04,20,12,14,17.90
2015,04,20,12,15,17.90
2015,04,20,12,16,18.00
2015,04,20,12,17,18.00
2015,04,20,12,18,18.00
2015,04,20,12,19,18.00
2015,04,20,12,20,18.10
2015,04,20,12,21,18.10
2015,04,20,12,22,18.10
2015,04,20,12,23,18.10
2015,04,20,12,24,18.20
2015,04,20,12,25,18.20
2015,04,20,12,26,18.30
2015,04,20,12,27,18.40
2015,04,20,12,28,18.50
2015,04,20,12,29,18.60
2015,04,20,12,30,18.60
2015,04,20,12,31,18.70
2015,04,20,12,32,18.80
2015,04,20,12,33,18.60
2015,04,20,12,34,18.50
2015,04,20,12,35,18.30
2015,04,20,12,36,18.20
2015,04,20,12,37,18.10
2015,04,20,12,38,17.90
2015,04,20,12,39,17.80
2015,04,20,12,40,17.60
2015,04,20,12,41,17.40
2015,04,20,12,42,17.30
2015,04,20,12,43,17.20
2015,04,20,12,44,17.20
2015,04,20,12,45,17.10
2015,04,20,12,46,17.00
2015,04,20,12,47,17.00
2015,04,20,12,48,16.90
2015,04,20,12,49,16.90
2015,04,20,12,50,16.80
2015,04,20,12,51,16.80
2015,04,20,12,52,16.80
2015,04,20,12,53,16.70
2015,04,20,12,54,16.70
2015,04,20,12,55,16.70
2015,04,20,12,56,16.80
2015,04,20,12,57,16.80
2015,04,20,12,58,16.80
2015,04,20,12,59,16.80
2015,04,20,13,00,16.80
2015,04,20,13,01,16.90
2015,04,20,13,02,16.90
2015,04,20,13,03,17.00
2015,04,20,13,04,17.00
2015,04,20,13,05,17.10
2015,04,20,13,06,17.10
2015,04,20,13,07,17.20
2015,04,20,13,08,17.20
2015,04,20,13,09,17.20
2015,04,20,13,10,17.30
2015,04,20,13,11,17.30
2015,04,20,13,12,17.40
2015,04,20,13,13,17.40
2015,04,20,13,14,17.50
2015,04,20,13,15,17.60
2015,04,20,13,16,17.60
2015,04,20,13,17,17.70
2015,04,20,13,18,17.70
2015,04,20,13,19,17.70
2015,04,20,13,20,17.70
2015,04,20,13,21,17.70
2015,04,20,13,22,17.80
2015,04,20,13,23,17.80
2015,04,20,13,24,17.80
2015,04,20,13,25,17.80
2015,04,20,13,26,17.90
2015,04,20,13,27,18.10
2015,04,20,13,28,18.20
2015,04,20,13,29,18.40
2015,04,20,13,30,18.40
2015,04,20,13,31,18.40
2015,04,20,13,32,18.40
2015,04,20,13,33,18.30
2015,04,20,13,34,18.20
2015,04,20,13,35,18.20
2015,04,20,13,36,18.20
2015,04,20,13,37,18.30
2015,04,20,13,38,18.30
2015,04,20,13,39,18.40
2015,04,20,13,40,18.40
2015,04,20,13,41,18.50
2015,04,20,13,42,18.60
2015,04,20,13,43,18.70
2015,04,20,13,44,18.80
2015,04,20,13,45,18.90
2015,04,20,13,46,19.00
2015,04,20,13,47,19.10
2015,04,20,13,48,19.20
2015,04,20,13,49,19.30
2015,04,20,13,50,19.30
2015,04,20,13,51,19.30
2015,04,20,13,52,19.30
2015,04,20,13,53,19.40
2015,04,20,13,54,19.30
2015,04,20,13,55,19.30
2015,04,20,13,56,19.30
2015,04,20,13,57,19.30
2015,04,20,13,58,19.20
2015,04,20,13,59,19.20
2015,04,20,14,00,19.10
2015,04,20,14,01,19.10
2015,04,20,14,02,19.20
2015,04,20,14,03,19.10
2015,04,20,14,04,19.10
2015,04,20,14,05,19.10
2015,04,20,14,06,19.00
2015,04,20,14,07,19.00
2015,04,20,14,08,19.10
2015,04,20,14,09,19.20
2015,04,20,14,10,19.30
2015,04,20,14,11,19.30
2015,04,20,14,12,19.30
2015,04,20,14,13,19.40
2015,04,20,14,14,19.40
2015,04,20,14,15,19.40
2015,04,20,14,16,19.40
2015,04,20,14,17,19.40
2015,04,20,14,18,19.40
2015,04,20,14,19,19.40
2015,04,20,14,20,19.40
2015,04,20,14,21,19.40
2015,04,20,14,22,19.50
2015,04,20,14,23,19.50
2015,04,20,14,24,19.50
2015,04,20,14,25,19.60
2015,04,20,14,26,19.60
2015,04,20,14,27,19.70
2015,04,20,14,28,19.70
2015,04,20,14,29,19.60
2015,04,20,14,30,19.60
2015,04,20,14,31,19.60
2015,04,20,14,32,19.60
2015,04,20,14,33,19.60
2015,04,20,14,34,19.60
2015,04,20,14,35,19.60
2015,04,20,14,36,19.50
2015,04,20,14,37,19.40
2015,04,20,14,38,19.40
2015,04,20,14,39,19.30
2015,04,20,14,40,19.40
2015,04,20,14,41,19.40
2015,04,20,14,42,19.40
2015,04,20,14,43,19.50
2015,04,20,14,44,19.50
2015,04,20,14,45,19.60
2015,04,20,14,46,19.70
2015,04,20,14,47,19.70
2015,04,20,14,48,19.70
2015,04,20,14,49,19.80
2015,04,20,14,50,19.80
2015,04,20,14,51,19.80
2015,04,20,14,52,19.90
2015,04,20,14,53,19.90
2015,04,20,14,54,20.00
2015,04,20,14,55,20.00
2015,04,20,14,56,20.10
2015,04,20,14,57,20.10
2015,04,20,14,58,20.20
2015,04,20,14,59,20.30
2015,04,20,15,00,20.30
2015,04,20,15,01,20.30
2015,04,20,15,02,20.40
2015,04,20,15,03,20.40
2015,04,20,15,04,20.30
2015,04,20,15,05,20.30
2015,04,20,15,06,20.30
2015,04,20,15,07,20.30
2015,04,20,15,08,20.30
2015,04,20,15,09,20.30
2015,04,20,15,10,20.40
2015,04,20,15,11,20.40
2015,04,20,15,12,20.30
2015,04,20,15,13,20.30
2015,04,20,15,14,20.40
2015,04,20,15,15,20.40
2015,04,20,15,16,20.40
2015,04,20,15,17,20.40
2015,04,20,15,18,20.50
2015,04,20,15,19,20.50
2015,04,20,15,20,20.60
2015,04,20,15,21,20.60
2015,04,20,15,22,20.70
2015,04,20,15,23,20.70
2015,04,20,15,24,20.70
2015,04,20,15,25,20.70
2015,04,20,15,26,20.70
2015,04,20,15,27,20.80
2015,04,20,15,28,20.90
2015,04,20,15,29,20.90
2015,04,20,15,30,20.90
2015,04,20,15,31,21.00
2015,04,20,15,32,21.00
2015,04,20,15,33,21.00
2015,04,20,15,34,21.00
2015,04,20,15,35,20.90
2015,04,20,15,36,20.90
2015,04,20,15,37,20.90
2015,04,20,15,38,20.90
2015,04,20,15,39,20.90
2015,04,20,15,40,20.90
2015,04,20,15,41,20.90
2015,04,20,15,42,20.90
2015,04,20,15,43,20.90
2015,04,20,15,44,20.90
2015,04,20,15,45,20.90
2015,04,20,15,46,20.90
2015,04,20,15,47,20.90
2015,04,20,15,48,20.90
2015,04,20,15,49,21.00
2015,04,20,15,50,21.00
2015,04,20,15,51,21.00
2015,04,20,15,52,21.00
2015,04,20,15,53,21.00
2015,04,20,15,54,21.00
2015,04,20,15,55,21.00
2015,04,20,15,56,21.00
2015,04,20,15,57,21.00
2015,04,20,15,58,21.00
2015,04,20,15,59,20.90
2015,04,20,16,00,20.90
2015,04,20,16,01,21.00
2015,04,20,16,02,21.10
2015,04,20,16,03,21.20
2015,04,20,16,04,21.30
2015,04,20,16,05,21.40
2015,04,20,16,06,21.50
2015,04,20,16,07,21.70
2015,04,20,16,08,21.80
2015,04,20,16,09,21.90
2015,04,20,16,10,21.90
2015,04,20,16,11,21.90
2015,04,20,16,12,21.90
2015,04,20,16,13,21.80
2015,04,20,16,14,21.80
2015,04,20,16,15,21.70
2015,04,20,16,16,21.60
2015,04,20,16,17,21.50
2015,04,20,16,18,21.50
2015,04,20,16,19,21.50
2015,04,20,16,20,21.50
2015,04,20,16,21,21.40
2015,04,20,16,22,21.40
2015,04,20,16,23,21.30
2015,04,20,16,24,21.20
2015,04,20,16,25,21.20
2015,04,20,16,26,21.20
2015,04,20,16,27,21.30
2015,04,20,16,28,21.40
2015,04,20,16,29,21.40
2015,04,20,16,30,21.40
2015,04,20,16,31,21.50
2015,04,20,16,32,21.50
2015,04,20,16,33,21.50
2015,04,20,16,34,21.60
2015,04,20,16,35,21.60
2015,04,20,16,36,21.60
2015,04,20,16,37,21.60
2015,04,20,16,38,21.60
2015,04,20,16,39,21.60
2015,04,20,16,40,21.60
2015,04,20,16,41,21.50
2015,04,20,16,42,21.50
2015,04,20,16,43,21.50
2015,04,20,16,44,21.50
2015,04,20,16,45,21.40
2015,04,20,16,46,21.40
2015,04,20,16,47,21.40
2015,04,20,16,48,21.30
2015,04,20,16,49,21.30
2015,04,20,16,50,21.30
2015,04,20,16,51,21.30
2015,04,20,16,52,21.30
2015,04,20,16,53,21.30
2015,04,20,16,54,21.30
2015,04,20,16,55,21.30
2015,04,20,16,56,21.20
2015,04,20,16,57,21.20
2015,04,20,16,58,21.20
2015,04,20,16,59,21.20
2015,04,20,17,00,21.20
2015,04,20,17,01,21.20
2015,04,20,17,02,21.30
2015,04,20,17,03,21.30
2015,04,20,17,04,21.30
2015,04,20,17,05,21.30
2015,04,20,17,06,21.30
2015,04,20,17,07,21.40
2015,04,20,17,08,21.40
2015,04,20,17,09,21.40
2015,04,20,17,10,21.40
2015,04,20,17,11,21.40
2015,04,20,17,12,21.40
2015,04,20,17,13,21.40
2015,04,20,17,14,21.50
2015,04,20,17,15,21.50
2015,04,20,17,16,21.50
2015,04,20,17,17,21.60
2015,04,20,17,18,21.60
2015,04,20,17,19,21.60
2015,04,20,17,20,21.50
2015,04,20,17,21,21.50
2015,04,20,17,22,21.50
2015,04,20,17,23,21.50
2015,04,20,17,24,21.50
2015,04,20,17,25,21.40
2015,04,20,17,26,21.50
2015,04,20,17,27,21.50
2015,04,20,17,28,21.60
2015,04,20,17,29,21.60
2015,04,20,17,30,21.60
2015,04,20,17,31,21.70
2015,04,20,17,32,21.70
2015,04,20,17,33,21.70
2015,04,20,17,34,21.70
2015,04,20,17,35,21.70
2015,04,20,17,36,21.60
2015,04,20,17,37,21.60
2015,04,20,17,38,21.70